| time (UTC) | temp C | wind direction | speed KPH | gust KPH | rain 1hr cm | rain 24hr cm | rain mn cm | humidity % | barometer mb |
| 20260508070712 | 6 | 266 | 0.0 | 0.0 | 0.00 | 0.00 | 0.00 | 64 | 1005.4 |
| 20260508070216 | 6 | 270 | 0.0 | 0.0 | 0.00 | 0.00 | 0.00 | 64 | 1005.4 |
| 20260508070212 | 6 | 270 | 0.0 | 0.0 | 0.00 | 0.00 | 0.00 | 64 | 1005.4 |
| 20260508065816 | 6 | 279 | 0.0 | 0.0 | 0.00 | 0.00 | 0.00 | 64 | 1005.4 |
| 20260508064711 | 6 | 282 | 0.0 | 0.0 | 0.00 | 0.00 | 0.00 | 64 | 1005.4 |
| 20260508064210 | 6 | 277 | 0.0 | 0.0 | 0.00 | 0.00 | 0.00 | 64 | 1005.4 |
| 20260508063714 | 6 | 270 | 0.0 | 0.0 | 0.00 | 0.00 | 0.00 | 63 | 1005.5 |
| 20260508063710 | 6 | 280 | 0.0 | 0.0 | 0.00 | 0.00 | 0.00 | 63 | 1005.4 |
| 20260508062714 | 6 | 264 | 0.0 | 0.0 | 0.00 | 0.00 | 0.00 | 63 | 1005.6 |
| 20260508062710 | 6 | 269 | 0.0 | 0.0 | 0.00 | 0.00 | 0.00 | 63 | 1005.5 |
| 20260508061710 | 6 | 255 | 0.0 | 0.0 | 0.00 | 0.00 | 0.00 | 63 | 1005.5 |
| 20260508061214 | 6 | 276 | 0.0 | 0.0 | 0.00 | 0.00 | 0.00 | 63 | 1005.5 |
| 20260508061210 | 6 | 278 | 0.0 | 0.0 | 0.00 | 0.00 | 0.00 | 62 | 1005.5 |
| 20260508060707 | 6 | 276 | 0.0 | 0.0 | 0.00 | 0.00 | 0.00 | 63 | 1005.5 |
| 20260508055706 | 6 | 278 | 0.0 | 0.0 | 0.00 | 0.00 | 0.00 | 63 | 1005.7 |
| 20260508055206 | 6 | 280 | 0.0 | 0.0 | 0.00 | 0.00 | 0.00 | 63 | 1005.8 |
| 20260508054706 | 6 | 280 | 0.0 | 0.0 | 0.00 | 0.00 | 0.00 | 63 | 1006.0 |
| 20260508054206 | 6 | 278 | 0.0 | 0.0 | 0.00 | 0.00 | 0.00 | 63 | 1006.1 |
| 20260508053712 | 6 | 276 | 0.0 | 0.0 | 0.00 | 0.00 | 0.00 | 63 | 1006.1 |
| 20260508053706 | 6 | 278 | 0.0 | 0.0 | 0.00 | 0.00 | 0.00 | 63 | 1006.1 |
| 20260508053205 | 6 | 269 | 0.0 | 0.0 | 0.00 | 0.00 | 0.00 | 63 | 1006.1 |
| 20260508052706 | 6 | 276 | 0.0 | 0.0 | 0.00 | 0.00 | 0.00 | 63 | 1006.1 |
| 20260508051710 | 6 | 252 | 0.0 | 0.0 | 0.00 | 0.00 | 0.00 | 61 | 1006.2 |
| 20260508051706 | 6 | 269 | 0.0 | 0.0 | 0.00 | 0.00 | 0.00 | 62 | 1006.1 |
| 20260508050708 | 6 | 269 | 0.0 | 0.0 | 0.00 | 0.00 | 0.00 | 61 | 1006.3 |
| 20260508050704 | 6 | 259 | 0.0 | 0.0 | 0.00 | 0.00 | 0.00 | 61 | 1006.3 |
| 20260508045704 | 6 | 269 | 0.0 | 0.0 | 0.00 | 0.00 | 0.00 | 62 | 1006.4 |
| 20260508045204 | 6 | 266 | 0.0 | 0.0 | 0.00 | 0.00 | 0.00 | 64 | 1006.3 |
| 20260508044708 | 6 | 264 | 0.0 | 0.0 | 0.00 | 0.00 | 0.00 | 61 | 1006.4 |
| 20260508044704 | 6 | 273 | 0.0 | 0.0 | 0.00 | 0.00 | 0.00 | 61 | 1006.4 |
| 20260508043704 | 6 | 271 | 0.0 | 0.0 | 0.00 | 0.00 | 0.00 | 61 | 1006.4 |
| 20260508043204 | 6 | 269 | 0.0 | 0.0 | 0.00 | 0.00 | 0.00 | 63 | 1006.5 |
| 20260508042704 | 5 | 349 | 0.0 | 0.0 | 0.00 | 0.00 | 0.00 | 65 | 1006.6 |
| 20260508042208 | 6 | 261 | 0.0 | 0.0 | 0.00 | 0.00 | 0.00 | 64 | 1006.5 |
| 20260508042202 | 5 | 261 | 0.0 | 0.0 | 0.00 | 0.00 | 0.00 | 68 | 1006.6 |
| 20260508041702 | 6 | 261 | 0.0 | 0.0 | 0.00 | 0.00 | 0.00 | 69 | 1006.6 |
| 20260508040702 | 7 | 261 | 0.0 | 0.0 | 0.00 | 0.00 | 0.00 | 57 | 1006.4 |
| 20260508040202 | 7 | 261 | 0.0 | 0.0 | 0.00 | 0.00 | 0.00 | 57 | 1006.4 |
| 20260508035700 | 7 | 270 | 0.0 | 0.0 | 0.00 | 0.00 | 0.79 | 57 | 1006.4 |
| 20260508035200 | 7 | 281 | 0.0 | 0.0 | 0.00 | 0.00 | 0.79 | 57 | 1006.5 |
| 20260508034700 | 7 | 314 | 0.0 | 0.0 | 0.00 | 0.00 | 0.79 | 57 | 1006.4 |
| 20260508034200 | 7 | 21 | 0.0 | 0.0 | 0.00 | 0.00 | 0.79 | 58 | 1006.6 |
| 20260508033700 | 7 | 21 | 0.0 | 0.0 | 0.00 | 0.00 | 0.79 | 57 | 1006.6 |
| 20260508033204 | 7 | 270 | 0.0 | 0.0 | 0.00 | 0.00 | 0.79 | 59 | 1006.6 |
| 20260508033200 | 7 | 270 | 0.0 | 0.0 | 0.00 | 0.00 | 0.79 | 57 | 1006.6 |
| 20260508032201 | 7 | 270 | 0.0 | 0.0 | 0.00 | 0.00 | 0.79 | 56 | 1006.6 |
| 20260508031700 | 8 | 270 | 0.0 | 0.0 | 0.00 | 0.00 | 0.79 | 55 | 1006.7 |
| 20260508031158 | 8 | 264 | 0.0 | 0.0 | 0.00 | 0.00 | 0.79 | 55 | 1006.6 |
| 20260508030656 | 8 | 264 | 0.0 | 0.0 | 0.00 | 0.00 | 0.79 | 54 | 1006.6 |
| 20260508030154 | 8 | 264 | 0.0 | 3.2 | 0.00 | 0.00 | 0.79 | 55 | 1006.6 |
| 20260508025654 | 8 | 281 | 0.0 | 3.2 | 0.00 | 0.00 | 0.79 | 55 | 1006.6 |
| 20260508025154 | 8 | 264 | 0.0 | 1.6 | 0.00 | 0.00 | 0.79 | 55 | 1006.6 |
| 20260508024654 | 8 | 269 | 0.0 | 1.6 | 0.00 | 0.00 | 0.79 | 56 | 1006.5 |
| 20260508024152 | 8 | 269 | 0.0 | 1.6 | 0.00 | 0.00 | 0.79 | 57 | 1006.4 |
| 20260508023652 | 8 | 256 | 0.0 | 0.0 | 0.00 | 0.00 | 0.79 | 56 | 1006.4 |
| 20260508023154 | 8 | 256 | 0.0 | 1.6 | 0.00 | 0.00 | 0.79 | 54 | 1006.3 |
| 20260508023150 | 8 | 256 | 0.0 | 1.6 | 0.00 | 0.00 | 0.79 | 56 | 1006.3 |
| 20260508022150 | 8 | 255 | 0.0 | 1.6 | 0.00 | 0.00 | 0.79 | 54 | 1006.2 |
| 20260508021650 | 8 | 255 | 0.0 | 3.2 | 0.00 | 0.00 | 0.79 | 53 | 1006.2 |
| 20260508021151 | 9 | 255 | 0.0 | 3.2 | 0.00 | 0.00 | 0.79 | 54 | 1006.1 |
| 20260508020650 | 9 | 272 | 0.0 | 3.2 | 0.00 | 0.00 | 0.79 | 54 | 1006.1 |
| 20260508020150 | 9 | 234 | 0.0 | 4.8 | 0.00 | 0.00 | 0.79 | 54 | 1006.2 |
| 20260508015648 | 9 | 325 | 1.6 | 4.8 | 0.00 | 0.00 | 0.79 | 54 | 1006.1 |
| 20260508015148 | 9 | 328 | 0.0 | 4.8 | 0.00 | 0.00 | 0.79 | 54 | 1006.1 |
| 20260508014648 | 9 | 302 | 0.0 | 4.8 | 0.00 | 0.00 | 0.79 | 53 | 1006.1 |
| 20260508014148 | 10 | 292 | 0.0 | 3.2 | 0.00 | 0.00 | 0.79 | 52 | 1006.0 |
| 20260508013648 | 10 | 354 | 0.0 | 3.2 | 0.00 | 0.00 | 0.79 | 52 | 1005.9 |
| 20260508013148 | 10 | 31 | 0.0 | 1.6 | 0.00 | 0.00 | 0.79 | 51 | 1005.9 |
| 20260508012652 | 10 | 4 | 0.0 | 4.8 | 0.00 | 0.00 | 0.79 | 50 | 1005.9 |
| 20260508012648 | 10 | 31 | 0.0 | 1.6 | 0.00 | 0.00 | 0.79 | 51 | 1005.9 |
| 20260508011652 | 10 | 358 | 1.6 | 4.8 | 0.00 | 0.00 | 0.79 | 49 | 1005.7 |
| 20260508011648 | 10 | 7 | 0.0 | 4.8 | 0.00 | 0.00 | 0.79 | 50 | 1005.8 |
| 20260508010646 | 11 | 249 | 1.6 | 6.4 | 0.00 | 0.00 | 0.79 | 49 | 1005.7 |
| 20260508010146 | 11 | 316 | 1.6 | 6.4 | 0.00 | 0.00 | 0.79 | 49 | 1005.6 |
| 20260508005647 | 11 | 257 | 1.6 | 4.8 | 0.00 | 0.00 | 0.79 | 49 | 1005.5 |
| 20260508005146 | 11 | 309 | 1.6 | 8.0 | 0.00 | 0.00 | 0.79 | 49 | 1005.4 |
| 20260508004646 | 11 | 278 | 1.6 | 8.0 | 0.00 | 0.00 | 0.79 | 49 | 1005.3 |
| 20260508004146 | 11 | 269 | 0.0 | 4.8 | 0.00 | 0.00 | 0.79 | 49 | 1005.2 |
| 20260508003646 | 11 | 263 | 1.6 | 4.8 | 0.00 | 0.00 | 0.79 | 48 | 1005.0 |
| 20260508003146 | 11 | 277 | 1.6 | 6.4 | 0.00 | 0.00 | 0.79 | 47 | 1005.0 |
| 20260508002646 | 11 | 327 | 0.0 | 6.4 | 0.00 | 0.00 | 0.79 | 47 | 1004.9 |
| 20260508002146 | 11 | 323 | 1.6 | 6.4 | 0.00 | 0.00 | 0.79 | 46 | 1004.9 |
| 20260508001650 | 12 | 293 | 1.6 | 8.0 | 0.00 | 0.00 | 0.79 | 45 | 1004.7 |
| 20260508001645 | 12 | 302 | 1.6 | 8.0 | 0.00 | 0.00 | 0.79 | 45 | 1004.8 |
| 20260508000646 | 12 | 271 | 0.0 | 4.8 | 0.00 | 0.00 | 0.79 | 45 | 1004.7 |
| 20260508000146 | 12 | 285 | 0.0 | 4.8 | 0.00 | 0.00 | 0.79 | 44 | 1004.6 |
| 20260507235646 | 12 | 270 | 1.6 | 4.8 | 0.00 | 0.00 | 0.79 | 43 | 1004.6 |
| 20260507235146 | 12 | 305 | 3.2 | 6.4 | 0.00 | 0.00 | 0.79 | 43 | 1004.5 |
| 20260507234646 | 13 | 254 | 3.2 | 8.0 | 0.00 | 0.00 | 0.79 | 43 | 1004.5 |
| 20260507234150 | 13 | 279 | 1.6 | 9.7 | 0.00 | 0.00 | 0.79 | 44 | 1004.3 |
| 20260507234146 | 13 | 276 | 1.6 | 8.0 | 0.00 | 0.00 | 0.79 | 43 | 1004.4 |
| 20260507233144 | 13 | 288 | 1.6 | 9.7 | 0.00 | 0.00 | 0.79 | 43 | 1004.2 |
| 20260507232649 | 13 | 311 | 1.6 | 6.4 | 0.00 | 0.00 | 0.79 | 43 | 1004.0 |
| 20260507232644 | 13 | 290 | 1.6 | 9.7 | 0.00 | 0.00 | 0.79 | 43 | 1004.2 |
| 20260507232143 | 13 | 330 | 1.6 | 9.7 | 0.00 | 0.00 | 0.79 | 45 | 1004.1 |
| 20260507231143 | 13 | 277 | 1.6 | 6.4 | 0.00 | 0.00 | 0.79 | 44 | 1003.9 |
| 20260507230644 | 13 | 278 | 1.6 | 6.4 | 0.00 | 0.00 | 0.79 | 44 | 1003.7 |
| 20260507230144 | 13 | 274 | 0.0 | 4.8 | 0.00 | 0.00 | 0.79 | 44 | 1003.7 |
| 20260507225644 | 13 | 219 | 0.0 | 3.2 | 0.00 | 0.00 | 0.79 | 42 | 1003.7 |
| 20260507225144 | 13 | 263 | 1.6 | 6.4 | 0.00 | 0.00 | 0.79 | 43 | 1003.6 |
| 20260507224644 | 13 | 288 | 1.6 | 6.4 | 0.00 | 0.00 | 0.79 | 43 | 1003.5 |
| 20260507224142 | 13 | 269 | 1.6 | 6.4 | 0.00 | 0.00 | 0.79 | 45 | 1003.5 |
| 20260507223642 | 14 | 308 | 1.6 | 6.4 | 0.00 | 0.00 | 0.79 | 44 | 1003.4 |
| 20260507223143 | 14 | 278 | 0.0 | 1.6 | 0.00 | 0.00 | 0.79 | 43 | 1003.3 |
| 20260507223139 | 14 | 276 | 0.0 | 4.8 | 0.00 | 0.00 | 0.79 | 43 | 1003.4 |
| 20260507222744 | 15 | 264 | 1.6 | 4.8 | 0.00 | 0.00 | 0.79 | 43 | 1003.2 |
| 20260507222139 | 14 | 265 | 0.0 | 4.8 | 0.00 | 0.00 | 0.79 | 45 | 1003.3 |
| 20260507221745 | 15 | 292 | 1.6 | 4.8 | 0.00 | 0.00 | 0.79 | 42 | 1003.2 |
| 20260507220640 | 15 | 278 | 1.6 | 8.0 | 0.00 | 0.00 | 0.79 | 42 | 1003.2 |
| 20260507220145 | 16 | 286 | 1.6 | 6.4 | 0.00 | 0.00 | 0.79 | 42 | 1003.0 |
| 20260507220141 | 15 | 262 | 1.6 | 8.0 | 0.00 | 0.00 | 0.79 | 41 | 1003.1 |
| 20260507215138 | 16 | 300 | 1.6 | 6.4 | 0.00 | 0.00 | 0.79 | 41 | 1003.1 |
| 20260507214641 | 16 | 251 | 3.2 | 9.7 | 0.00 | 0.00 | 0.79 | 41 | 1003.1 |
| 20260507214637 | 15 | 252 | 1.6 | 8.0 | 0.00 | 0.00 | 0.79 | 41 | 1003.1 |
| 20260507213635 | 16 | 264 | 3.2 | 9.7 | 0.00 | 0.00 | 0.79 | 42 | 1003.0 |
| 20260507213135 | 16 | 285 | 3.2 | 9.7 | 0.00 | 0.00 | 0.79 | 39 | 1003.0 |
| 20260507212636 | 16 | 294 | 3.2 | 9.7 | 0.00 | 0.00 | 0.79 | 39 | 1002.9 |
| 20260507212136 | 16 | 273 | 3.2 | 9.7 | 0.00 | 0.00 | 0.79 | 39 | 1002.9 |
| 20260507211640 | 17 | 240 | 1.6 | 6.4 | 0.00 | 0.00 | 0.79 | 39 | 1002.6 |
| 20260507211636 | 17 | 304 | 3.2 | 12.9 | 0.00 | 0.00 | 0.79 | 40 | 1002.8 |
| 20260507211135 | 17 | 304 | 3.2 | 12.9 | 0.00 | 0.00 | 0.79 | 37 | 1002.8 |
| 20260507210138 | 16 | 286 | 0.0 | 3.2 | 0.00 | 0.00 | 0.79 | 40 | 1002.7 |
| 20260507210134 | 17 | 295 | 1.6 | 4.8 | 0.00 | 0.00 | 0.79 | 39 | 1002.7 |
| 20260507205134 | 17 | 207 | 1.6 | 9.7 | 0.00 | 0.00 | 0.79 | 43 | 1002.6 |
| 20260507204637 | 16 | 247 | 1.6 | 6.4 | 0.00 | 0.00 | 0.79 | 45 | 1002.5 |
| 20260507204633 | 16 | 34 | 3.2 | 9.7 | 0.00 | 0.00 | 0.79 | 42 | 1002.5 |
| 20260507203633 | 16 | 285 | 1.6 | 12.9 | 0.00 | 0.00 | 0.79 | 45 | 1002.4 |
| 20260507203133 | 17 | 269 | 3.2 | 12.9 | 0.00 | 0.00 | 0.79 | 45 | 1002.4 |
| 20260507202634 | 17 | 308 | 3.2 | 12.9 | 0.00 | 0.00 | 0.79 | 46 | 1002.4 |
| 20260507202137 | 17 | 278 | 1.6 | 11.3 | 0.00 | 0.00 | 0.79 | 49 | 1002.4 |
| 20260507202133 | 17 | 323 | 3.2 | 11.3 | 0.00 | 0.00 | 0.79 | 48 | 1002.4 |
| 20260507201134 | 17 | 259 | 1.6 | 9.7 | 0.00 | 0.00 | 0.79 | 50 | 1002.4 |
| 20260507200632 | 17 | 282 | 1.6 | 9.7 | 0.00 | 0.00 | 0.79 | 53 | 1002.5 |
| 20260507200132 | 16 | 284 | 3.2 | 6.4 | 0.00 | 0.00 | 0.79 | 55 | 1002.4 |
| 20260507195629 | 16 | 254 | 3.2 | 9.7 | 0.00 | 0.00 | 0.79 | 52 | 1002.5 |
| 20260507195129 | 17 | 193 | 1.6 | 9.7 | 0.00 | 0.00 | 0.79 | 54 | 1002.5 |
| 20260507194630 | 17 | 283 | 1.6 | 8.0 | 0.00 | 0.00 | 0.79 | 56 | 1002.6 |
| 20260507194127 | 17 | 243 | 0.0 | 8.0 | 0.00 | 0.00 | 0.79 | 56 | 1002.5 |
| 20260507193628 | 17 | 222 | 0.0 | 0.0 | 0.00 | 0.00 | 0.79 | 55 | 1002.6 |
| 20260507193134 | 17 | 235 | 0.0 | 0.0 | 0.00 | 0.00 | 0.79 | 56 | 1002.7 |
| 20260507193128 | 17 | 86 | 0.0 | 0.0 | 0.00 | 0.00 | 0.79 | 56 | 1002.6 |
| 20260507192628 | 17 | 136 | 0.0 | 0.0 | 0.00 | 0.00 | 0.79 | 57 | 1002.8 |
| 20260507191627 | 16 | 157 | 0.0 | 0.0 | 0.00 | 0.00 | 0.79 | 59 | 1002.7 |
| 20260507191132 | 16 | 264 | 1.6 | 6.4 | 0.00 | 0.00 | 0.79 | 58 | 1002.8 |
| 20260507191128 | 16 | 199 | 0.0 | 0.0 | 0.00 | 0.00 | 0.79 | 60 | 1002.8 |
| 20260507190127 | 16 | 231 | 1.6 | 6.4 | 0.00 | 0.00 | 0.79 | 57 | 1002.8 |
| 20260507185627 | 17 | 236 | 1.6 | 4.8 | 0.00 | 0.00 | 0.79 | 56 | 1002.9 |
| 20260507185127 | 17 | 230 | 0.0 | 4.8 | 0.00 | 0.00 | 0.79 | 56 | 1003.0 |
| 20260507184627 | 17 | 62 | 0.0 | 3.2 | 0.00 | 0.00 | 0.79 | 61 | 1002.9 |
| 20260507184127 | 16 | 238 | 1.6 | 6.4 | 0.00 | 0.00 | 0.79 | 60 | 1002.9 |
| 20260507183628 | 17 | 230 | 1.6 | 6.4 | 0.00 | 0.00 | 0.79 | 59 | 1003.0 |
| 20260507183129 | 16 | 245 | 0.0 | 0.0 | 0.00 | 0.00 | 0.79 | 62 | 1003.2 |
| 20260507183125 | 16 | 257 | 0.0 | 4.8 | 0.00 | 0.00 | 0.79 | 59 | 1003.1 |
| 20260507182133 | 16 | 264 | 0.0 | 0.0 | 0.00 | 0.00 | 0.79 | 62 | 1003.4 |
| 20260507182126 | 16 | 141 | 0.0 | 0.0 | 0.00 | 0.00 | 0.79 | 60 | 1003.2 |
| 20260507181626 | 16 | 267 | 0.0 | 0.0 | 0.00 | 0.00 | 0.79 | 63 | 1003.3 |
| 20260507181126 | 16 | 130 | 0.0 | 0.0 | 0.00 | 0.00 | 0.79 | 63 | 1003.4 |
| 20260507180124 | 16 | 211 | 0.0 | 0.0 | 0.00 | 0.00 | 0.79 | 62 | 1003.4 |
| 20260507175627 | 16 | 60 | 0.0 | 0.0 | 0.00 | 0.00 | 0.79 | 65 | 1003.4 |
| 20260507175623 | 16 | 224 | 0.0 | 0.0 | 0.00 | 0.00 | 0.79 | 62 | 1003.3 |
| 20260507174621 | 16 | 271 | 0.0 | 0.0 | 0.00 | 0.00 | 0.79 | 64 | 1003.6 |
| 20260507174118 | 16 | 252 | 0.0 | 0.0 | 0.00 | 0.00 | 0.79 | 62 | 1003.5 |
| 20260507173609 | 16 | 216 | 0.0 | 0.0 | 0.00 | 0.00 | 0.79 | 60 | 1003.4 |
| 20260507173101 | 16 | 158 | 0.0 | 0.0 | 0.00 | 0.00 | 0.79 | 62 | 1003.4 |
| 20260507173054 | 16 | 90 | 0.0 | 0.0 | 0.00 | 0.00 | 0.79 | 58 | 1003.4 |
| 20260507172657 | 17 | 94 | 0.0 | 0.0 | 0.00 | 0.00 | 0.79 | 55 | 1003.4 |
| 20260507171556 | 17 | 293 | 0.0 | 0.0 | 0.00 | 0.00 | 0.79 | 57 | 1003.4 |
| 20260507171054 | 17 | 237 | 0.0 | 0.0 | 0.00 | 0.00 | 0.79 | 56 | 1003.6 |
| 20260507170541 | 17 | 146 | 0.0 | 3.2 | 0.00 | 0.00 | 0.79 | 55 | 1003.5 |
| 20260507170056 | 17 | 109 | 0.0 | 3.2 | 0.00 | 0.00 | 0.79 | 55 | 1003.5 |
| 20260507165542 | 17 | 237 | 0.0 | 0.0 | 0.00 | 0.00 | 0.79 | 58 | 1003.6 |
| 20260507165047 | 17 | 298 | 0.0 | 3.2 | 0.00 | 0.00 | 0.79 | 55 | 1003.7 |
| 20260507165043 | 16 | 277 | 0.0 | 0.0 | 0.00 | 0.00 | 0.79 | 56 | 1003.6 |
| 20260507164041 | 16 | 245 | 1.6 | 6.4 | 0.00 | 0.00 | 0.79 | 57 | 1003.7 |
| 20260507163539 | 16 | 238 | 1.6 | 6.4 | 0.00 | 0.00 | 0.79 | 56 | 1003.7 |
| 20260507163041 | 16 | 15 | 1.6 | 4.8 | 0.00 | 0.00 | 0.79 | 56 | 1003.7 |
| 20260507162538 | 16 | 158 | 1.6 | 3.2 | 0.00 | 0.00 | 0.79 | 54 | 1003.9 |
| 20260507162043 | 16 | 302 | 1.6 | 6.4 | 0.00 | 0.00 | 0.79 | 61 | 1003.8 |
| 20260507161540 | 16 | 233 | 0.0 | 6.4 | 0.00 | 0.00 | 0.79 | 62 | 1004.0 |
| 20260507161041 | 16 | 315 | 0.0 | 0.0 | 0.00 | 0.00 | 0.79 | 59 | 1004.0 |
| 20260507160537 | 16 | 233 | 0.0 | 0.0 | 0.00 | 0.00 | 0.79 | 59 | 1004.1 |
| 20260507160053 | 16 | 311 | 0.0 | 0.0 | 0.00 | 0.00 | 0.79 | 61 | 1004.3 |
| 20260507155535 | 16 | 243 | 0.0 | 0.0 | 0.00 | 0.00 | 0.79 | 63 | 1004.3 |
| 20260507155040 | 16 | 4 | 0.0 | 0.0 | 0.00 | 0.00 | 0.79 | 63 | 1004.4 |
| 20260507153716 | 15 | 249 | 0.0 | 0.0 | 0.00 | 0.00 | 0.79 | 63 | 1004.5 |
| 20260507153213 | 15 | 268 | 0.0 | 0.0 | 0.00 | 0.00 | 0.79 | 66 | 1004.5 |
| 20260507152716 | 15 | 284 | 0.0 | 0.0 | 0.00 | 0.00 | 0.79 | 64 | 1004.5 |
| 20260507152212 | 15 | 257 | 0.0 | 0.0 | 0.00 | 0.00 | 0.79 | 66 | 1004.5 |
| 20260507151715 | 15 | 264 | 0.0 | 0.0 | 0.00 | 0.00 | 0.79 | 68 | 1004.6 |
| 20260507151357 | 15 | 28 | 0.0 | 0.0 | 0.00 | 2.16 | 0.79 | 67 | 1004.6 |
| 20260507150856 | 14 | 311 | 0.0 | 0.0 | 0.00 | 2.16 | 0.79 | 70 | 1004.7 |
| 20260507150341 | 14 | 302 | 0.0 | 0.0 | 0.00 | 2.16 | 0.79 | 68 | 1004.7 |
| 20260507145815 | 15 | 340 | 0.0 | 0.0 | 0.00 | 2.16 | 0.79 | 65 | 1004.7 |
| 20260507145315 | 15 | 311 | 0.0 | 0.0 | 0.00 | 2.16 | 0.79 | 65 | 1004.7 |
| 20260507144811 | 15 | 20 | 0.0 | 0.0 | 0.00 | 2.16 | 0.79 | 68 | 1004.8 |
| 20260507144309 | 15 | 328 | 0.0 | 0.0 | 0.00 | 2.16 | 0.79 | 70 | 1004.9 |
| 20260507143807 | 14 | 300 | 0.0 | 0.0 | 0.00 | 2.16 | 0.79 | 69 | 1004.9 |
| 20260507143307 | 14 | 293 | 0.0 | 0.0 | 0.00 | 2.16 | 0.79 | 70 | 1004.9 |
| 20260507142812 | 13 | 262 | 0.0 | 0.0 | 0.00 | 2.16 | 0.79 | 71 | 1005.0 |
| 20260507142807 | 14 | 271 | 0.0 | 0.0 | 0.00 | 2.16 | 0.79 | 70 | 1005.0 |
| 20260507141752 | 13 | 249 | 0.0 | 0.0 | 0.00 | 2.16 | 0.79 | 71 | 1005.1 |
| 20260507141249 | 13 | 318 | 0.0 | 0.0 | 0.00 | 2.16 | 0.79 | 75 | 1005.2 |
| 20260507140749 | 13 | 13 | 0.0 | 0.0 | 0.00 | 2.16 | 0.79 | 75 | 1005.2 |
| 20260507140247 | 13 | 337 | 0.0 | 0.0 | 0.00 | 2.16 | 0.79 | 72 | 1005.2 |
| 20260507135747 | 12 | 32 | 0.0 | 0.0 | 0.00 | 2.16 | 0.79 | 75 | 1005.4 |
| 20260507135249 | 12 | 31 | 0.0 | 4.8 | 0.00 | 2.16 | 0.79 | 75 | 1005.3 |
| 20260507135245 | 12 | 33 | 0.0 | 0.0 | 0.00 | 2.16 | 0.79 | 74 | 1005.3 |
| 20260507134244 | 12 | 9 | 1.6 | 6.4 | 0.00 | 2.16 | 0.79 | 76 | 1005.3 |
| 20260507133745 | 12 | 284 | 1.6 | 6.4 | 0.00 | 2.16 | 0.79 | 79 | 1005.3 |
| 20260507133249 | 11 | 11 | 3.2 | 12.9 | 0.00 | 2.16 | 0.79 | 77 | 1005.5 |
| 20260507133244 | 12 | 319 | 3.2 | 12.9 | 0.00 | 2.16 | 0.79 | 76 | 1005.5 |
| 20260507132245 | 12 | 62 | 1.6 | 8.0 | 0.00 | 2.16 | 0.79 | 77 | 1005.4 |
| 20260507131749 | 11 | 259 | 1.6 | 6.4 | 0.00 | 2.16 | 0.79 | 81 | 1005.5 |
| 20260507131745 | 12 | 13 | 0.0 | 4.8 | 0.00 | 2.16 | 0.79 | 79 | 1005.4 |
| 20260507130744 | 11 | 23 | 3.2 | 9.7 | 0.00 | 2.16 | 0.79 | 81 | 1005.6 |
| 20260507130239 | 11 | 32 | 3.2 | 9.7 | 0.00 | 2.16 | 0.79 | 81 | 1005.7 |
| 20260507125742 | 11 | 262 | 1.6 | 9.7 | 0.00 | 2.16 | 0.79 | 84 | 1005.8 |
| 20260507125738 | 11 | 273 | 3.2 | 9.7 | 0.00 | 2.16 | 0.79 | 82 | 1005.8 |
| 20260507125342 | 11 | 251 | 3.2 | 9.7 | 0.00 | 2.16 | 0.79 | 80 | 1005.8 |
| 20260507124241 | 10 | 328 | 3.2 | 12.9 | 0.00 | 2.16 | 0.79 | 85 | 1005.5 |
| 20260507124237 | 10 | 262 | 1.6 | 11.3 | 0.00 | 2.16 | 0.79 | 85 | 1005.6 |
| 20260507123737 | 10 | 305 | 3.2 | 11.3 | 0.00 | 2.16 | 0.79 | 84 | 1005.6 |
| 20260507123235 | 10 | 276 | 3.2 | 11.3 | 0.00 | 2.16 | 0.79 | 85 | 1005.6 |
| 20260507122734 | 10 | 296 | 3.2 | 11.3 | 0.00 | 2.16 | 0.79 | 86 | 1005.6 |
| 20260507121732 | 9 | 309 | 3.2 | 12.9 | 0.00 | 2.16 | 0.79 | 87 | 1005.7 |
| 20260507121233 | 9 | 294 | 0.0 | 9.7 | 0.00 | 2.16 | 0.79 | 88 | 1005.7 |
| 20260507120733 | 9 | 303 | 0.0 | 0.0 | 0.00 | 2.16 | 0.79 | 90 | 1005.6 |
| 20260507120226 | 8 | 282 | 0.0 | 0.0 | 0.00 | 2.16 | 0.79 | 90 | 1005.6 |
| 20260507120208 | 8 | 260 | 0.0 | 0.0 | 0.00 | 2.16 | 0.79 | 92 | 1005.6 |
| 20260507115812 | 8 | 280 | 0.0 | 0.0 | 0.00 | 2.16 | 0.79 | 92 | 1005.5 |
| 20260507114707 | 8 | 260 | 0.0 | 0.0 | 0.00 | 2.16 | 0.79 | 92 | 1005.6 |
| 20260507114204 | 8 | 269 | 0.0 | 0.0 | 0.00 | 2.16 | 0.79 | 92 | 1005.7 |
| 20260507114200 | 8 | 311 | 0.0 | 0.0 | 0.00 | 2.16 | 0.79 | 93 | 1005.8 |
| 20260507113148 | 8 | 278 | 0.0 | 0.0 | 0.00 | 2.16 | 0.79 | 94 | 1005.7 |
| 20260507112642 | 7 | 280 | 0.0 | 0.0 | 0.00 | 2.16 | 0.79 | 94 | 1005.7 |
| 20260507112127 | 7 | 265 | 0.0 | 0.0 | 0.00 | 2.16 | 0.79 | 95 | 1006.0 |
| 20260507112112 | 7 | 258 | 0.0 | 0.0 | 0.00 | 2.16 | 0.79 | 96 | 1006.1 |
| 20260507111110 | 7 | 337 | 0.0 | 0.0 | 0.00 | 2.16 | 0.79 | 96 | 1005.9 |
| 20260507110610 | 7 | 319 | 0.0 | 0.0 | 0.00 | 2.16 | 0.79 | 97 | 1005.7 |
| 20260507110115 | 7 | 255 | 0.0 | 0.0 | 0.00 | 2.16 | 0.79 | 97 | 1006.7 |
| 20260507110111 | 7 | 255 | 0.0 | 0.0 | 0.00 | 2.16 | 0.79 | 97 | 1006.3 |
| 20260507105714 | 7 | 329 | 0.0 | 0.0 | 0.00 | 2.16 | 0.79 | 97 | 1006.0 |
| 20260507104610 | 7 | 262 | 0.0 | 0.0 | 0.00 | 2.16 | 0.79 | 98 | 1005.8 |
| 20260507104115 | 7 | 300 | 0.0 | 0.0 | 0.00 | 2.16 | 0.79 | 99 | 1005.7 |
| 20260507104111 | 7 | 257 | 0.0 | 0.0 | 0.00 | 2.16 | 0.79 | 98 | 1006.3 |
| 20260507103606 | 7 | 257 | 0.0 | 0.0 | 0.00 | 2.16 | 0.79 | 98 | 1006.1 |
| 20260507103211 | 7 | 27 | 0.0 | 0.0 | 0.00 | 2.16 | 0.79 | 99 | 1006.0 |
| 20260507102711 | 7 | 262 | 0.0 | 0.0 | 0.00 | 2.16 | 0.79 | 99 | 1005.8 |
| 20260507101605 | 7 | 261 | 0.0 | 0.0 | 0.00 | 2.16 | 0.79 | 99 | 1005.9 |
| 20260507101107 | 7 | 261 | 0.0 | 0.0 | 0.00 | 2.16 | 0.79 | 99 | 1006.0 |
| 20260507101103 | 7 | 261 | 0.0 | 0.0 | 0.00 | 2.16 | 0.79 | 99 | 1005.6 |
| 20260507100707 | 7 | 262 | 0.0 | 0.0 | 0.00 | 2.16 | 0.79 | 99 | 1005.2 |
| 20260507100207 | 7 | 262 | 0.0 | 0.0 | 0.00 | 2.16 | 0.79 | 99 | 1005.1 |
| 20260507095102 | 7 | 262 | 0.0 | 0.0 | 0.00 | 2.16 | 0.79 | 99 | 1005.5 |
| 20260507094602 | 7 | 262 | 0.0 | 0.0 | 0.00 | 2.16 | 0.79 | 98 | 1005.7 |
| 20260507094102 | 7 | 260 | 0.0 | 0.0 | 0.00 | 2.16 | 0.79 | 98 | 1005.3 |
| 20260507093602 | 7 | 264 | 0.0 | 0.0 | 0.00 | 2.16 | 0.79 | 98 | 1005.1 |
| 20260507093102 | 7 | 297 | 0.0 | 0.0 | 0.00 | 2.16 | 0.79 | 98 | 1004.8 |
| 20260507092602 | 7 | 271 | 0.0 | 0.0 | 0.00 | 2.16 | 0.79 | 99 | 1005.2 |
| 20260507092207 | 7 | 274 | 0.0 | 0.0 | 0.00 | 2.16 | 0.79 | 99 | 1005.3 |
| 20260507092107 | 7 | 276 | 0.0 | 0.0 | 0.00 | 2.16 | 0.79 | 99 | 1005.3 |
| 20260507092103 | 7 | 265 | 0.0 | 0.0 | 0.00 | 2.16 | 0.79 | 99 | 1005.6 |
| 20260507091102 | 7 | 262 | 0.0 | 0.0 | 0.00 | 2.16 | 0.79 | 99 | 1005.5 |
| 20260507090708 | 7 | 304 | 0.0 | 0.0 | 0.00 | 2.16 | 0.79 | 99 | 1005.4 |
| 20260507085607 | 7 | 262 | 0.0 | 0.0 | 0.00 | 2.16 | 0.79 | 99 | 1005.2 |
| 20260507085602 | 7 | 276 | 0.0 | 0.0 | 0.00 | 2.16 | 0.79 | 99 | 1005.5 |
| 20260507084603 | 7 | 297 | 0.0 | 0.0 | 0.00 | 2.16 | 0.79 | 99 | 1005.2 |
| 20260507084102 | 7 | 250 | 0.0 | 0.0 | 0.00 | 2.16 | 0.79 | 99 | 1005.0 |
| 20260507083600 | 7 | 316 | 0.0 | 0.0 | 0.00 | 2.16 | 0.79 | 99 | 1004.9 |
| 20260507083100 | 8 | 265 | 0.0 | 0.0 | 0.00 | 2.16 | 0.79 | 99 | 1005.3 |
| 20260507082600 | 8 | 280 | 0.0 | 0.0 | 0.00 | 2.16 | 0.79 | 99 | 1005.4 |
| 20260507082059 | 8 | 278 | 0.0 | 0.0 | 0.00 | 2.16 | 0.79 | 99 | 1005.2 |
| 20260507081554 | 8 | 271 | 0.0 | 0.0 | 0.00 | 2.16 | 0.79 | 99 | 1005.3 |
| 20260507081053 | 8 | 295 | 0.0 | 0.0 | 0.00 | 2.16 | 0.79 | 99 | 1004.8 |
| 20260507080552 | 8 | 276 | 0.0 | 0.0 | 0.00 | 2.16 | 0.79 | 99 | 1005.0 |
| 20260507080052 | 8 | 250 | 0.0 | 0.0 | 0.00 | 2.16 | 0.79 | 99 | 1005.0 |
| 20260507075552 | 8 | 287 | 0.0 | 1.6 | 0.00 | 2.16 | 0.79 | 99 | 1004.9 |
| 20260507075048 | 8 | 282 | 0.0 | 1.6 | 0.00 | 2.16 | 0.79 | 99 | 1004.9 |
| 20260507074548 | 8 | 276 | 0.0 | 0.0 | 0.00 | 2.16 | 0.79 | 99 | 1005.0 |
| 20260507074047 | 8 | 263 | 0.0 | 0.0 | 0.00 | 2.16 | 0.79 | 99 | 1004.8 |
| 20260507073546 | 8 | 278 | 0.0 | 0.0 | 0.00 | 2.16 | 0.79 | 99 | 1004.7 |
| 20260507073046 | 8 | 291 | 0.0 | 0.0 | 0.00 | 2.16 | 0.79 | 99 | 1004.8 |
| 20260507072546 | 9 | 273 | 0.0 | 0.0 | 0.00 | 2.16 | 0.79 | 99 | 1004.9 |
| 20260507072046 | 9 | 313 | 0.0 | 0.0 | 0.00 | 2.16 | 0.79 | 99 | 1004.6 |
| 20260507071547 | 9 | 256 | 0.0 | 0.0 | 0.00 | 2.16 | 0.79 | 99 | 1004.5 |
| 20260507071046 | 9 | 268 | 0.0 | 0.0 | 0.00 | 2.16 | 0.79 | 99 | 1004.5 |